Time,TemperatureF,DewpointF,PressureIn,WindDirection,WindDirectionDegrees,WindSpeedMPH,WindSpeedGustMPH,Humidity,HourlyPrecipIn,Conditions,Clouds,dailyrainin,SolarRadiationWatts/m^2,SoftwareType,DateUTC
2013-06-02 00:00:00,75.9,70.0,30.11,SW,226,6.0,10.0,82,0.00,,CLR,0.00,0.00,VWS V14.01,2013-06-02 04:00:00,
2013-06-02 00:01:00,75.9,70.0,30.11,SW,221,8.0,10.0,82,0.00,,CLR,0.00,0.00,VWS V14.01,2013-06-02 04:01:00,
2013-06-02 00:06:00,75.9,70.0,30.11,SW,225,5.0,10.0,82,0.00,,CLR,0.00,0.00,VWS V14.01,2013-06-02 04:06:00,
2013-06-02 00:11:00,75.9,70.4,30.10,SSW,201,10.0,10.0,83,0.00,,CLR,0.00,0.00,VWS V14.01,2013-06-02 04:11:00,
2013-06-02 00:16:00,75.8,70.3,30.10,WSW,240,7.0,9.0,83,0.00,,CLR,0.00,0.00,VWS V14.01,2013-06-02 04:16:00,
2013-06-02 00:21:00,75.8,70.3,30.10,West,259,5.0,10.0,83,0.00,,CLR,0.00,0.00,VWS V14.01,2013-06-02 04:21:00,
2013-06-02 00:26:00,75.8,70.3,30.10,SW,230,6.0,11.0,83,0.00,,CLR,0.00,0.00,VWS V14.01,2013-06-02 04:26:00,
2013-06-02 00:31:00,75.7,70.2,30.10,SW,219,10.0,10.0,83,0.00,,CLR,0.00,0.00,VWS V14.01,2013-06-02 04:31:00,
2013-06-02 00:36:00,75.7,70.5,30.09,SW,221,3.0,8.0,84,0.00,,CLR,0.00,0.00,VWS V14.01,2013-06-02 04:36:00,
2013-06-02 00:41:00,75.6,70.4,30.09,SSW,211,4.0,10.0,84,0.00,,CLR,0.00,0.00,VWS V14.01,2013-06-02 04:41:00,
2013-06-02 00:46:00,75.5,70.3,30.09,SW,229,5.0,8.0,84,0.00,,CLR,0.00,0.00,VWS V14.01,2013-06-02 04:46:00,
2013-06-02 00:51:00,75.5,70.3,30.09,SSW,213,7.0,11.0,84,0.00,,CLR,0.00,0.00,VWS V14.01,2013-06-02 04:51:00,
2013-06-02 00:56:00,75.5,70.3,30.10,SW,227,4.0,10.0,84,0.00,,CLR,0.00,0.00,VWS V14.01,2013-06-02 04:56:00,
2013-06-02 01:01:00,75.5,70.7,30.09,SW,221,5.0,8.0,85,0.00,,CLR,0.00,0.00,VWS V14.01,2013-06-02 05:01:00,
2013-06-02 01:06:00,75.5,70.7,30.09,SW,222,5.0,10.0,85,0.00,,CLR,0.00,0.00,VWS V14.01,2013-06-02 05:06:00,
2013-06-02 01:11:00,75.5,70.7,30.09,SW,224,7.0,8.0,85,0.00,,CLR,0.00,0.00,VWS V14.01,2013-06-02 05:11:00,
2013-06-02 01:16:00,75.4,70.6,30.09,SW,215,4.0,10.0,85,0.00,,CLR,0.00,0.00,VWS V14.01,2013-06-02 05:16:00,
2013-06-02 01:21:00,75.4,70.6,30.08,SSW,209,5.0,9.0,85,0.00,,CLR,0.00,0.00,VWS V14.01,2013-06-02 05:21:00,
2013-06-02 01:26:00,75.3,70.8,30.08,SW,229,7.0,9.0,86,0.00,,CLR,0.00,0.00,VWS V14.01,2013-06-02 05:26:00,
2013-06-02 01:31:00,75.3,70.8,30.08,SW,217,9.0,9.0,86,0.00,,CLR,0.00,0.00,VWS V14.01,2013-06-02 05:31:00,
2013-06-02 01:36:00,75.2,70.7,30.08,WSW,238,7.0,9.0,86,0.00,,CLR,0.00,0.00,VWS V14.01,2013-06-02 05:36:00,
2013-06-02 01:41:00,75.2,70.4,30.08,SSW,205,6.0,9.0,85,0.00,,CLR,0.00,0.00,VWS V14.01,2013-06-02 05:41:00,
2013-06-02 01:46:00,75.1,70.3,30.08,SW,227,6.0,11.0,85,0.00,,CLR,0.00,0.00,VWS V14.01,2013-06-02 05:46:00,
2013-06-02 01:51:00,75.1,70.3,30.07,SW,219,6.0,10.0,85,0.00,,CLR,0.00,0.00,VWS V14.01,2013-06-02 05:51:00,
2013-06-02 01:56:00,75.1,70.6,30.07,SSW,206,7.0,8.0,86,0.00,,CLR,0.00,0.00,VWS V14.01,2013-06-02 05:56:00,
2013-06-02 02:01:00,75.1,70.6,30.07,SW,232,7.0,8.0,86,0.00,,CLR,0.00,0.00,VWS V14.01,2013-06-02 06:01:00,
2013-06-02 02:06:00,75.1,70.6,30.07,SW,223,5.0,8.0,86,0.00,,CLR,0.00,0.00,VWS V14.01,2013-06-02 06:06:00,
2013-06-02 02:11:00,75.1,71.0,30.07,SW,229,5.0,9.0,87,0.00,,CLR,0.00,0.00,VWS V14.01,2013-06-02 06:11:00,
2013-06-02 02:16:00,75.1,71.0,30.06,SSW,212,3.0,9.0,87,0.00,,CLR,0.00,0.00,VWS V14.01,2013-06-02 06:16:00,
2013-06-02 02:21:00,75.0,70.9,30.06,SSW,209,6.0,7.0,87,0.00,,CLR,0.00,0.00,VWS V14.01,2013-06-02 06:21:00,
2013-06-02 02:26:00,74.9,70.8,30.06,SW,227,5.0,10.0,87,0.00,,CLR,0.00,0.00,VWS V14.01,2013-06-02 06:26:00,
2013-06-02 02:31:00,75.0,70.9,30.06,SW,220,5.0,8.0,87,0.00,,CLR,0.00,0.00,VWS V14.01,2013-06-02 06:31:00,
2013-06-02 02:36:00,75.0,70.9,30.05,SW,218,5.0,8.0,87,0.00,,CLR,0.00,0.00,VWS V14.01,2013-06-02 06:36:00,
2013-06-02 02:41:00,75.0,70.9,30.05,WSW,238,6.0,9.0,87,0.00,,CLR,0.00,0.00,VWS V14.01,2013-06-02 06:41:00,
2013-06-02 02:46:00,75.0,70.9,30.05,WSW,239,6.0,9.0,87,0.00,,CLR,0.00,0.00,VWS V14.01,2013-06-02 06:46:00,
2013-06-02 02:51:00,75.0,70.9,30.05,SW,217,6.0,10.0,87,0.00,,CLR,0.00,0.00,VWS V14.01,2013-06-02 06:51:00,
2013-06-02 02:56:00,75.0,70.9,30.04,SW,228,8.0,10.0,87,0.00,,CLR,0.00,0.00,VWS V14.01,2013-06-02 06:56:00,
2013-06-02 03:01:00,74.9,70.8,30.04,SSW,209,7.0,10.0,87,0.00,,CLR,0.00,0.00,VWS V14.01,2013-06-02 07:01:00,
2013-06-02 03:06:00,74.9,70.8,30.04,SW,232,6.0,8.0,87,0.00,,CLR,0.00,0.00,VWS V14.01,2013-06-02 07:06:00,
2013-06-02 03:11:00,74.9,70.8,30.04,SW,234,4.0,10.0,87,0.00,,CLR,0.00,0.00,VWS V14.01,2013-06-02 07:11:00,
2013-06-02 03:16:00,74.9,70.8,30.04,SW,232,6.0,7.0,87,0.00,,CLR,0.00,0.00,VWS V14.01,2013-06-02 07:16:00,
2013-06-02 03:21:00,74.9,70.8,30.04,WSW,238,6.0,8.0,87,0.00,,CLR,0.00,0.00,VWS V14.01,2013-06-02 07:21:00,
2013-06-02 03:26:00,74.9,70.8,30.04,SW,228,4.0,8.0,87,0.00,,CLR,0.00,0.00,VWS V14.01,2013-06-02 07:26:00,
2013-06-02 03:31:00,74.9,70.8,30.04,SW,231,6.0,8.0,87,0.00,,CLR,0.00,0.00,VWS V14.01,2013-06-02 07:31:00,
2013-06-02 03:36:00,74.9,70.8,30.03,SSW,210,7.0,8.0,87,0.00,,CLR,0.00,0.00,VWS V14.01,2013-06-02 07:36:00,
2013-06-02 03:41:00,74.9,70.8,30.03,SW,215,5.0,7.0,87,0.00,,CLR,0.00,0.00,VWS V14.01,2013-06-02 07:41:00,
2013-06-02 03:46:00,74.8,71.0,30.03,WSW,240,6.0,8.0,88,0.00,,CLR,0.00,0.00,VWS V14.01,2013-06-02 07:46:00,
2013-06-02 03:51:00,74.8,71.0,30.02,SSW,198,5.0,7.0,88,0.00,,CLR,0.00,0.00,VWS V14.01,2013-06-02 07:51:00,
2013-06-02 03:56:00,74.7,70.9,30.02,SSW,212,6.0,7.0,88,0.00,,CLR,0.00,0.00,VWS V14.01,2013-06-02 07:56:00,
2013-06-02 04:01:00,74.7,70.9,30.02,SW,234,5.0,8.0,88,0.00,,CLR,0.00,0.00,VWS V14.01,2013-06-02 08:01:00,
2013-06-02 04:06:00,74.7,70.9,30.02,SW,217,6.0,9.0,88,0.00,,CLR,0.00,0.00,VWS V14.01,2013-06-02 08:06:00,
2013-06-02 04:11:00,74.7,70.6,30.02,SW,228,6.0,9.0,87,0.00,,CLR,0.00,0.00,VWS V14.01,2013-06-02 08:11:00,
2013-06-02 04:16:00,74.7,70.6,30.02,SW,234,5.0,8.0,87,0.00,,CLR,0.00,0.00,VWS V14.01,2013-06-02 08:16:00,
2013-06-02 04:21:00,74.7,70.6,30.01,SW,223,4.0,12.0,87,0.00,,CLR,0.00,0.00,VWS V14.01,2013-06-02 08:21:00,
2013-06-02 04:26:00,74.7,70.2,30.01,SW,232,7.0,12.0,86,0.00,,CLR,0.00,0.00,VWS V14.01,2013-06-02 08:26:00,
2013-06-02 04:31:00,74.8,70.3,30.01,SSW,196,6.0,12.0,86,0.00,,CLR,0.00,0.00,VWS V14.01,2013-06-02 08:31:00,
2013-06-02 04:36:00,74.8,70.7,30.01,SSW,210,7.0,8.0,87,0.00,,CLR,0.00,0.00,VWS V14.01,2013-06-02 08:36:00,
2013-06-02 04:41:00,74.8,70.7,30.01,SSW,203,7.0,9.0,87,0.00,,CLR,0.00,0.00,VWS V14.01,2013-06-02 08:41:00,
2013-06-02 04:46:00,74.8,70.7,30.01,SW,214,6.0,9.0,87,0.00,,CLR,0.00,0.00,VWS V14.01,2013-06-02 08:46:00,
2013-06-02 04:51:00,74.7,70.6,30.01,WSW,248,3.0,9.0,87,0.00,,CLR,0.00,0.00,VWS V14.01,2013-06-02 08:51:00,
2013-06-02 04:56:00,74.7,70.6,30.01,SSW,211,6.0,10.0,87,0.00,,CLR,0.00,0.00,VWS V14.01,2013-06-02 08:56:00,
2013-06-02 05:01:00,74.7,70.6,30.01,SW,215,4.0,8.0,87,0.00,,CLR,0.00,0.00,VWS V14.01,2013-06-02 09:01:00,
2013-06-02 05:06:00,74.6,70.5,30.01,SW,236,5.0,8.0,87,0.00,,CLR,0.00,0.00,VWS V14.01,2013-06-02 09:06:00,
2013-06-02 05:11:00,74.6,70.8,30.01,SW,225,5.0,7.0,88,0.00,,CLR,0.00,0.00,VWS V14.01,2013-06-02 09:11:00,
2013-06-02 05:16:00,74.6,70.8,30.01,SW,225,2.0,8.0,88,0.00,,CLR,0.00,0.00,VWS V14.01,2013-06-02 09:16:00,
2013-06-02 05:21:00,74.6,70.8,30.01,SW,232,5.0,8.0,88,0.00,,CLR,0.00,0.00,VWS V14.01,2013-06-02 09:21:00,
2013-06-02 05:26:00,74.5,70.7,30.01,SW,235,4.0,7.0,88,0.00,,CLR,0.00,0.00,VWS V14.01,2013-06-02 09:26:00,
2013-06-02 05:31:00,74.5,70.7,30.01,SW,214,4.0,6.0,88,0.00,,CLR,0.00,0.00,VWS V14.01,2013-06-02 09:31:00,
2013-06-02 05:36:00,74.5,70.7,30.01,SW,220,4.0,7.0,88,0.00,,CLR,0.00,0.00,VWS V14.01,2013-06-02 09:36:00,
2013-06-02 05:41:00,74.5,70.7,30.01,SW,217,6.0,8.0,88,0.00,,CLR,0.00,0.00,VWS V14.01,2013-06-02 09:41:00,
2013-06-02 05:46:00,74.4,70.9,30.01,SW,223,3.0,7.0,89,0.00,,CLR,0.00,0.00,VWS V14.01,2013-06-02 09:46:00,
2013-06-02 05:51:00,74.4,70.9,30.01,SW,223,5.0,9.0,89,0.00,,CLR,0.00,0.00,VWS V14.01,2013-06-02 09:51:00,
2013-06-02 05:56:00,74.3,70.5,30.01,SSW,201,5.0,9.0,88,0.00,,CLR,0.00,0.00,VWS V14.01,2013-06-02 09:56:00,
2013-06-02 06:01:00,74.3,70.5,30.01,SW,216,7.0,8.0,88,0.00,,CLR,0.00,0.00,VWS V14.01,2013-06-02 10:01:00,
2013-06-02 06:06:00,74.4,70.6,30.01,WSW,239,7.0,8.0,88,0.00,,CLR,0.00,0.00,VWS V14.01,2013-06-02 10:06:00,
2013-06-02 06:11:00,74.4,70.6,30.01,SSW,194,5.0,9.0,88,0.00,,CLR,0.00,7.00,VWS V14.01,2013-06-02 10:11:00,
2013-06-02 06:16:00,74.4,70.6,30.01,SW,229,5.0,7.0,88,0.00,,CLR,0.00,9.00,VWS V14.01,2013-06-02 10:16:00,
2013-06-02 06:21:00,74.4,70.6,30.01,SSW,204,7.0,8.0,88,0.00,,CLR,0.00,12.00,VWS V14.01,2013-06-02 10:21:00,
2013-06-02 06:26:00,74.4,70.6,30.01,SSW,207,6.0,10.0,88,0.00,,CLR,0.00,16.00,VWS V14.01,2013-06-02 10:26:00,
2013-06-02 06:31:00,74.4,70.6,30.01,SW,221,6.0,9.0,88,0.00,,CLR,0.00,21.00,VWS V14.01,2013-06-02 10:31:00,
2013-06-02 06:36:00,74.5,70.7,30.02,WSW,238,8.0,9.0,88,0.00,,CLR,0.00,30.00,VWS V14.01,2013-06-02 10:36:00,
2013-06-02 06:41:00,74.6,70.8,30.02,SW,234,4.0,7.0,88,0.00,,CLR,0.00,40.00,VWS V14.01,2013-06-02 10:41:00,
2013-06-02 06:46:00,74.7,70.9,30.02,WSW,240,5.0,7.0,88,0.00,,CLR,0.00,51.00,VWS V14.01,2013-06-02 10:46:00,
2013-06-02 06:51:00,74.8,71.3,30.02,SSW,206,6.0,7.0,89,0.00,,CLR,0.00,54.00,VWS V14.01,2013-06-02 10:51:00,
2013-06-02 06:56:00,74.9,71.4,30.02,SSW,209,4.0,7.0,89,0.00,,CLR,0.00,70.00,VWS V14.01,2013-06-02 10:56:00,
2013-06-02 07:01:00,74.9,71.4,30.02,SW,217,3.0,7.0,89,0.00,,CLR,0.00,97.00,VWS V14.01,2013-06-02 11:01:00,
2013-06-02 07:06:00,75.1,71.6,30.03,SSW,207,5.0,7.0,89,0.00,,CLR,0.00,114.00,VWS V14.01,2013-06-02 11:06:00,
2013-06-02 07:11:00,75.1,71.3,30.02,ESE,119,4.0,6.0,88,0.00,,CLR,0.00,123.00,VWS V14.01,2013-06-02 11:11:00,
2013-06-02 07:16:00,75.1,71.0,30.03,SSW,205,3.0,10.0,87,0.00,,CLR,0.00,153.00,VWS V14.01,2013-06-02 11:16:00,
2013-06-02 07:21:00,75.3,71.2,30.03,SW,223,7.0,7.0,87,0.00,,CLR,0.00,169.00,VWS V14.01,2013-06-02 11:21:00,
2013-06-02 07:26:00,75.4,71.3,30.03,SW,217,3.0,6.0,87,0.00,,CLR,0.00,181.00,VWS V14.01,2013-06-02 11:26:00,
2013-06-02 07:30:00,75.5,71.4,30.03,SW,217,3.0,7.0,87,0.00,,CLR,0.00,199.00,VWS V14.01,2013-06-02 11:30:00,
2013-06-02 07:35:00,75.7,71.2,30.03,WSW,244,5.0,7.0,86,0.00,,CLR,0.00,216.00,VWS V14.01,2013-06-02 11:35:00,
2013-06-02 07:40:00,75.9,71.4,30.03,SW,226,5.0,9.0,86,0.00,,CLR,0.00,232.00,VWS V14.01,2013-06-02 11:40:00,
2013-06-02 07:45:00,76.0,71.5,30.03,SW,230,6.0,7.0,86,0.00,,CLR,0.00,248.00,VWS V14.01,2013-06-02 11:45:00,
2013-06-02 07:50:00,76.2,71.7,30.03,SW,219,8.0,8.0,86,0.00,,CLR,0.00,267.00,VWS V14.01,2013-06-02 11:50:00,
2013-06-02 07:55:00,76.2,71.7,30.04,SSW,210,5.0,8.0,86,0.00,,CLR,0.00,283.00,VWS V14.01,2013-06-02 11:55:00,
2013-06-02 08:00:00,76.4,71.9,30.04,SW,222,4.0,9.0,86,0.00,,CLR,0.00,299.00,VWS V14.01,2013-06-02 12:00:00,
2013-06-02 08:05:00,76.4,71.9,30.04,SW,216,6.0,6.0,86,0.00,,CLR,0.00,316.00,VWS V14.01,2013-06-02 12:05:00,
2013-06-02 08:10:00,76.5,71.7,30.04,SW,224,6.0,9.0,85,0.00,,CLR,0.00,336.00,VWS V14.01,2013-06-02 12:10:00,
2013-06-02 08:15:00,76.6,71.8,30.04,SW,223,5.0,8.0,85,0.00,,CLR,0.00,353.00,VWS V14.01,2013-06-02 12:15:00,
2013-06-02 08:20:00,76.7,71.5,30.04,SW,217,10.0,10.0,84,0.00,,CLR,0.00,371.00,VWS V14.01,2013-06-02 12:20:00,
2013-06-02 08:25:00,76.7,71.5,30.04,WSW,239,3.0,10.0,84,0.00,,CLR,0.00,390.00,VWS V14.01,2013-06-02 12:25:00,
2013-06-02 08:30:00,76.8,71.6,30.04,SW,231,7.0,8.0,84,0.00,,CLR,0.00,404.00,VWS V14.01,2013-06-02 12:30:00,
2013-06-02 08:35:00,77.2,71.6,30.04,SW,225,7.0,10.0,83,0.00,,CLR,0.00,422.00,VWS V14.01,2013-06-02 12:35:00,
2013-06-02 08:40:00,77.3,71.7,30.04,SW,223,8.0,9.0,83,0.00,,CLR,0.00,438.00,VWS V14.01,2013-06-02 12:40:00,
2013-06-02 08:45:00,77.6,72.0,30.04,SSW,206,5.0,7.0,83,0.00,,CLR,0.00,455.00,VWS V14.01,2013-06-02 12:45:00,
2013-06-02 08:50:00,77.5,71.9,30.03,SSW,207,5.0,11.0,83,0.00,,CLR,0.00,475.00,VWS V14.01,2013-06-02 12:50:00,
2013-06-02 08:55:00,77.7,72.1,30.04,SW,217,5.0,9.0,83,0.00,,CLR,0.00,492.00,VWS V14.01,2013-06-02 12:55:00,
2013-06-02 09:00:00,77.8,71.9,30.04,WSW,246,7.0,11.0,82,0.00,,SCT016,0.00,504.00,VWS V14.01,2013-06-02 13:00:00,
2013-06-02 09:05:00,77.7,72.1,30.04,WSW,253,5.0,12.0,83,0.00,,SCT016,0.00,520.00,VWS V14.01,2013-06-02 13:05:00,
2013-06-02 09:10:00,77.9,72.0,30.04,SW,217,10.0,11.0,82,0.00,,SCT016,0.00,540.00,VWS V14.01,2013-06-02 13:10:00,
2013-06-02 09:15:00,78.1,72.5,30.04,SW,234,5.0,10.0,83,0.00,,SCT016,0.00,555.00,VWS V14.01,2013-06-02 13:15:00,
2013-06-02 09:20:00,78.4,72.4,30.05,SSW,200,5.0,10.0,82,0.00,,SCT016,0.00,577.00,VWS V14.01,2013-06-02 13:20:00,
2013-06-02 09:25:00,78.4,72.4,30.05,SW,232,7.0,11.0,82,0.00,,SCT016,0.00,585.00,VWS V14.01,2013-06-02 13:25:00,
2013-06-02 09:30:00,78.5,72.6,30.04,SW,219,4.0,8.0,82,0.00,,SCT016,0.00,649.00,VWS V14.01,2013-06-02 13:30:00,
2013-06-02 09:35:00,78.5,72.2,30.04,SW,223,9.0,10.0,81,0.00,,SCT016,0.00,645.00,VWS V14.01,2013-06-02 13:35:00,
2013-06-02 09:40:00,78.9,72.6,30.04,SSW,213,4.0,7.0,81,0.00,,SCT016,0.00,638.00,VWS V14.01,2013-06-02 13:40:00,
2013-06-02 09:45:00,78.6,72.3,30.04,SSW,213,5.0,9.0,81,0.00,,SCT016,0.00,650.00,VWS V14.01,2013-06-02 13:45:00,
2013-06-02 09:50:00,78.3,72.4,30.05,SW,230,5.0,9.0,82,0.00,,SCT016,0.00,664.00,VWS V14.01,2013-06-02 13:50:00,
2013-06-02 09:55:00,78.4,72.1,30.04,SSW,194,6.0,11.0,81,0.00,,SCT016,0.00,677.00,VWS V14.01,2013-06-02 13:55:00,
2013-06-02 10:00:00,78.2,71.9,30.04,SSW,213,9.0,9.0,81,0.00,,SCT039,0.00,691.00,VWS V14.01,2013-06-02 14:00:00,
2013-06-02 10:05:00,78.2,71.9,30.04,SW,217,10.0,11.0,81,0.00,,SCT039,0.00,700.00,VWS V14.01,2013-06-02 14:05:00,
2013-06-02 10:10:00,78.2,72.3,30.04,SW,229,6.0,12.0,82,0.00,,SCT039,0.00,752.00,VWS V14.01,2013-06-02 14:10:00,
2013-06-02 10:15:00,78.4,72.1,30.05,SSW,202,7.0,10.0,81,0.00,,SCT039,0.00,584.00,VWS V14.01,2013-06-02 14:15:00,
2013-06-02 10:20:00,78.9,72.6,30.05,South,182,7.0,10.0,81,0.00,,SCT039,0.00,800.00,VWS V14.01,2013-06-02 14:20:00,
2013-06-02 10:25:00,79.1,72.0,30.04,SW,218,8.0,10.0,79,0.00,,SCT039,0.00,758.00,VWS V14.01,2013-06-02 14:25:00,
2013-06-02 10:30:00,79.1,72.4,30.04,WSW,238,6.0,13.0,80,0.00,,SCT039,0.00,772.00,VWS V14.01,2013-06-02 14:30:00,
2013-06-02 10:35:00,78.8,72.1,30.04,SW,229,7.0,12.0,80,0.00,,SCT039,0.00,779.00,VWS V14.01,2013-06-02 14:35:00,
2013-06-02 10:40:00,78.9,72.2,30.04,WSW,238,9.0,13.0,80,0.00,,SCT039,0.00,793.00,VWS V14.01,2013-06-02 14:40:00,
2013-06-02 10:45:00,78.8,72.1,30.04,SSW,199,6.0,13.0,80,0.00,,SCT039,0.00,802.00,VWS V14.01,2013-06-02 14:45:00,
2013-06-02 10:50:00,79.1,72.0,30.04,SSW,210,6.0,12.0,79,0.00,,SCT039,0.00,814.00,VWS V14.01,2013-06-02 14:50:00,
2013-06-02 10:55:00,79.0,72.3,30.04,WSW,257,15.0,15.0,80,0.00,,SCT039,0.00,824.00,VWS V14.01,2013-06-02 14:55:00,
2013-06-02 11:00:00,79.1,72.4,30.04,SW,229,8.0,12.0,80,0.00,,SCT039,0.00,835.00,VWS V14.01,2013-06-02 15:00:00,
2013-06-02 11:05:00,79.2,72.1,30.04,SW,232,6.0,13.0,79,0.00,,SCT039,0.00,847.00,VWS V14.01,2013-06-02 15:05:00,
2013-06-02 11:10:00,79.2,72.5,30.04,SSW,200,6.0,12.0,80,0.00,,SCT047,0.00,856.00,VWS V14.01,2013-06-02 15:10:00,
2013-06-02 11:15:00,79.3,72.2,30.04,SW,217,7.0,13.0,79,0.00,,SCT047,0.00,863.00,VWS V14.01,2013-06-02 15:15:00,
2013-06-02 11:20:00,79.4,72.3,30.04,SW,219,8.0,12.0,79,0.00,,SCT047,0.00,875.00,VWS V14.01,2013-06-02 15:20:00,
2013-06-02 11:25:00,79.5,72.0,30.04,SW,224,16.0,16.0,78,0.00,,SCT047,0.00,884.00,VWS V14.01,2013-06-02 15:25:00,
2013-06-02 11:30:00,79.3,72.2,30.04,SSW,200,12.0,14.0,79,0.00,,SCT047,0.00,893.00,VWS V14.01,2013-06-02 15:30:00,
2013-06-02 11:35:00,79.2,71.8,30.04,SSW,203,7.0,15.0,78,0.00,,SCT047,0.00,902.00,VWS V14.01,2013-06-02 15:35:00,
2013-06-02 11:40:00,79.4,72.3,30.03,SW,236,11.0,17.0,79,0.00,,SCT047,0.00,912.00,VWS V14.01,2013-06-02 15:40:00,
2013-06-02 11:45:00,79.3,72.2,30.03,SW,229,6.0,14.0,79,0.00,,SCT047,0.00,918.00,VWS V14.01,2013-06-02 15:45:00,
2013-06-02 11:50:00,79.7,72.2,30.04,South,178,7.0,14.0,78,0.00,,SCT047,0.00,925.00,VWS V14.01,2013-06-02 15:50:00,
2013-06-02 11:55:00,79.4,72.3,30.04,SW,221,15.0,15.0,79,0.00,,SCT047,0.00,930.00,VWS V14.01,2013-06-02 15:55:00,
2013-06-02 12:00:00,79.5,72.4,30.04,SW,214,8.0,16.0,79,0.00,,SCT047,0.00,935.00,VWS V14.01,2013-06-02 16:00:00,
2013-06-02 12:05:00,79.6,72.5,30.04,SW,223,9.0,14.0,79,0.00,,SCT047,0.00,946.00,VWS V14.01,2013-06-02 16:05:00,
2013-06-02 12:10:00,79.8,72.3,30.04,SW,223,12.0,16.0,78,0.00,,SCT025,0.00,949.00,VWS V14.01,2013-06-02 16:10:00,
2013-06-02 12:15:00,79.9,72.4,30.04,SW,234,8.0,15.0,78,0.00,,SCT025,0.00,958.00,VWS V14.01,2013-06-02 16:15:00,
2013-06-02 12:20:00,79.7,72.6,30.04,SW,228,9.0,15.0,79,0.00,,SCT025,0.00,972.00,VWS V14.01,2013-06-02 16:20:00,
2013-06-02 12:25:00,79.7,72.6,30.04,SW,229,9.0,15.0,79,0.00,,SCT025,0.00,997.00,VWS V14.01,2013-06-02 16:25:00,
2013-06-02 12:30:00,80.0,72.9,30.04,SW,221,11.0,13.0,79,0.00,,SCT025,0.00,970.00,VWS V14.01,2013-06-02 16:30:00,
2013-06-02 12:35:00,79.9,72.8,30.04,South,173,7.0,13.0,79,0.00,,SCT025,0.00,974.00,VWS V14.01,2013-06-02 16:35:00,
2013-06-02 12:40:00,80.4,72.9,30.04,WSW,248,12.0,12.0,78,0.00,,SCT025,0.00,979.00,VWS V14.01,2013-06-02 16:40:00,
2013-06-02 12:45:00,81.0,73.1,30.04,SW,219,10.0,10.0,77,0.00,,SCT025,0.00,979.00,VWS V14.01,2013-06-02 16:45:00,
2013-06-02 12:50:00,81.3,73.4,30.04,WSW,246,7.0,12.0,77,0.00,,SCT025,0.00,988.00,VWS V14.01,2013-06-02 16:50:00,
2013-06-02 12:55:00,81.5,73.6,30.04,SW,227,9.0,14.0,77,0.00,,SCT025,0.00,993.00,VWS V14.01,2013-06-02 16:55:00,
2013-06-02 13:00:00,81.9,73.2,30.04,SW,232,9.0,13.0,75,0.00,,SCT025,0.00,983.00,VWS V14.01,2013-06-02 17:00:00,
2013-06-02 13:05:00,81.7,73.0,30.03,SSW,196,8.0,13.0,75,0.00,,SCT025,0.00,984.00,VWS V14.01,2013-06-02 17:05:00,
2013-06-02 13:10:00,80.9,73.0,30.03,SSW,204,12.0,14.0,77,0.00,,SCT025,0.00,983.00,VWS V14.01,2013-06-02 17:10:00,
2013-06-02 13:15:00,81.0,73.1,30.03,SW,234,11.0,15.0,77,0.00,,SCT025,0.00,976.00,VWS V14.01,2013-06-02 17:15:00,
2013-06-02 13:20:00,81.4,73.1,30.03,SW,233,10.0,14.0,76,0.00,,SCT025,0.00,983.00,VWS V14.01,2013-06-02 17:20:00,
2013-06-02 13:25:00,81.3,73.0,30.03,SW,214,10.0,13.0,76,0.00,,SCT025,0.00,983.00,VWS V14.01,2013-06-02 17:25:00,
2013-06-02 13:30:00,81.6,73.7,30.02,SSE,153,4.0,12.0,77,0.00,,SCT025,0.00,983.00,VWS V14.01,2013-06-02 17:30:00,
2013-06-02 13:35:00,82.1,73.8,30.02,SSE,159,8.0,9.0,76,0.00,,SCT025,0.00,979.00,VWS V14.01,2013-06-02 17:35:00,
2013-06-02 13:40:00,82.4,74.1,30.02,SE,145,5.0,8.0,76,0.00,,SCT025,0.00,979.00,VWS V14.01,2013-06-02 17:40:00,
2013-06-02 13:45:00,82.7,73.6,30.02,SW,236,4.0,9.0,74,0.00,,SCT025,0.00,976.00,VWS V14.01,2013-06-02 17:45:00,
2013-06-02 13:50:00,82.7,74.0,30.02,SSW,204,9.0,9.0,75,0.00,,SCT025,0.00,963.00,VWS V14.01,2013-06-02 17:50:00,
2013-06-02 13:55:00,82.8,74.1,30.02,SW,223,8.0,8.0,75,0.00,,SCT025,0.00,954.00,VWS V14.01,2013-06-02 17:55:00,
2013-06-02 14:00:00,82.2,73.5,30.02,ENE,62,4.0,9.0,75,0.00,,SCT023,0.00,965.00,VWS V14.01,2013-06-02 18:00:00,
2013-06-02 14:05:00,81.7,73.4,30.01,SSW,209,5.0,9.0,76,0.00,,SCT023,0.00,962.00,VWS V14.01,2013-06-02 18:05:00,
2013-06-02 14:10:00,81.4,73.5,30.01,SE,136,3.0,9.0,77,0.00,,SCT023,0.00,958.00,VWS V14.01,2013-06-02 18:10:00,
2013-06-02 14:15:00,81.4,73.5,30.01,ESE,102,3.0,9.0,77,0.00,,SCT023,0.00,951.00,VWS V14.01,2013-06-02 18:15:00,
2013-06-02 14:20:00,82.2,73.9,30.01,ESE,113,2.0,7.0,76,0.00,,SCT023,0.00,946.00,VWS V14.01,2013-06-02 18:20:00,
2013-06-02 14:25:00,82.3,73.6,30.01,North,355,3.0,11.0,75,0.00,,SCT023,0.00,937.00,VWS V14.01,2013-06-02 18:25:00,
2013-06-02 14:30:00,82.2,73.9,30.01,SE,144,6.0,9.0,76,0.00,,SCT023,0.00,933.00,VWS V14.01,2013-06-02 18:30:00,
2013-06-02 14:35:00,83.1,74.0,30.01,SSW,211,3.0,7.0,74,0.00,,SCT023,0.00,928.00,VWS V14.01,2013-06-02 18:35:00,
2013-06-02 14:40:00,83.2,74.1,30.01,SW,235,6.0,11.0,74,0.00,,SCT023,0.00,919.00,VWS V14.01,2013-06-02 18:40:00,
2013-06-02 14:45:00,83.0,74.3,30.01,NNE,22,3.0,7.0,75,0.00,,SCT023,0.00,911.00,VWS V14.01,2013-06-02 18:45:00,
2013-06-02 14:50:00,82.6,73.5,30.00,SE,137,6.0,11.0,74,0.00,,SCT023,0.00,889.00,VWS V14.01,2013-06-02 18:50:00,
2013-06-02 14:55:00,82.5,73.0,30.00,SW,223,3.0,12.0,73,0.00,,SCT023,0.00,900.00,VWS V14.01,2013-06-02 18:55:00,
2013-06-02 15:00:00,82.8,73.3,30.00,WSW,241,8.0,10.0,73,0.00,,SCT025,0.00,882.00,VWS V14.01,2013-06-02 19:00:00,
2013-06-02 15:05:00,82.6,73.5,30.00,WSW,237,9.0,11.0,74,0.00,,SCT025,0.00,868.00,VWS V14.01,2013-06-02 19:05:00,
2013-06-02 15:10:00,82.2,73.9,30.00,SSW,209,5.0,7.0,76,0.00,,SCT025,0.00,867.00,VWS V14.01,2013-06-02 19:10:00,
2013-06-02 15:15:00,82.3,74.0,30.00,South,191,2.0,8.0,76,0.00,,SCT025,0.00,851.00,VWS V14.01,2013-06-02 19:15:00,
2013-06-02 15:20:00,82.0,73.7,30.00,South,190,3.0,11.0,76,0.00,,SCT025,0.00,819.00,VWS V14.01,2013-06-02 19:20:00,
2013-06-02 15:25:00,82.6,74.3,30.00,SW,227,5.0,7.0,76,0.00,,SCT025,0.00,837.00,VWS V14.01,2013-06-02 19:25:00,
2013-06-02 15:30:00,82.5,74.2,30.00,SW,223,9.0,9.0,76,0.00,,SCT025,0.00,823.00,VWS V14.01,2013-06-02 19:30:00,
2013-06-02 15:35:00,82.3,74.0,30.00,SW,230,3.0,9.0,76,0.00,,SCT025,0.00,812.00,VWS V14.01,2013-06-02 19:35:00,
2013-06-02 15:40:00,82.0,74.1,29.99,SW,222,6.0,10.0,77,0.00,,SCT025,0.00,807.00,VWS V14.01,2013-06-02 19:40:00,
2013-06-02 15:45:00,82.2,74.3,29.99,West,264,4.0,8.0,77,0.00,,SCT025,0.00,793.00,VWS V14.01,2013-06-02 19:45:00,
2013-06-02 15:50:00,82.6,74.7,29.99,WSW,242,6.0,7.0,77,0.00,,SCT025,0.00,780.00,VWS V14.01,2013-06-02 19:50:00,
2013-06-02 15:55:00,82.9,74.6,29.99,SW,234,5.0,6.0,76,0.00,,SCT025,0.00,763.00,VWS V14.01,2013-06-02 19:55:00,
2013-06-02 16:00:00,83.1,74.8,29.99,NE,45,1.0,8.0,76,0.00,,SCT025,0.00,747.00,VWS V14.01,2013-06-02 20:00:00,
2013-06-02 16:05:00,83.4,74.7,29.99,SW,217,5.0,9.0,75,0.00,,SCT025,0.00,744.00,VWS V14.01,2013-06-02 20:05:00,
2013-06-02 16:10:00,83.1,74.4,29.98,SE,130,3.0,8.0,75,0.00,,SCT025,0.00,733.00,VWS V14.01,2013-06-02 20:10:00,
2013-06-02 16:15:00,83.5,74.3,29.98,South,172,4.0,8.0,74,0.00,,SCT025,0.00,719.00,VWS V14.01,2013-06-02 20:15:00,
2013-06-02 16:20:00,82.7,74.4,29.98,SSW,193,2.0,7.0,76,0.00,,SCT025,0.00,703.00,VWS V14.01,2013-06-02 20:20:00,
2013-06-02 16:25:00,82.3,74.4,29.98,SSW,207,7.0,8.0,77,0.00,,SCT025,0.00,693.00,VWS V14.01,2013-06-02 20:25:00,
2013-06-02 16:30:00,82.3,74.4,29.98,South,175,4.0,8.0,77,0.00,,SCT025,0.00,679.00,VWS V14.01,2013-06-02 20:30:00,
2013-06-02 16:35:00,82.7,74.8,29.98,South,190,3.0,11.0,77,0.00,,SCT025,0.00,663.00,VWS V14.01,2013-06-02 20:35:00,
2013-06-02 16:40:00,82.7,74.8,29.98,SSW,205,4.0,8.0,77,0.00,,SCT025,0.00,657.00,VWS V14.01,2013-06-02 20:40:00,
2013-06-02 16:45:00,82.8,74.5,29.98,SW,219,4.0,7.0,76,0.00,,SCT025,0.00,642.00,VWS V14.01,2013-06-02 20:45:00,
2013-06-02 16:50:00,82.1,74.2,29.98,South,183,4.0,11.0,77,0.00,,SCT025,0.00,622.00,VWS V14.01,2013-06-02 20:50:00,
2013-06-02 16:55:00,82.2,74.7,29.97,WSW,240,8.0,8.0,78,0.00,,SCT025,0.00,605.00,VWS V14.01,2013-06-02 20:55:00,
2013-06-02 17:00:00,82.1,74.2,29.97,South,180,2.0,10.0,77,0.00,,SCT020,0.00,589.00,VWS V14.01,2013-06-02 21:00:00,
2013-06-02 17:05:00,82.6,74.7,29.97,SW,214,2.0,9.0,77,0.00,,SCT020,0.00,580.00,VWS V14.01,2013-06-02 21:05:00,
2013-06-02 17:10:00,82.5,74.2,29.97,SSE,163,5.0,9.0,76,0.00,,SCT020,0.00,563.00,VWS V14.01,2013-06-02 21:10:00,
2013-06-02 17:15:00,82.0,74.5,29.97,SSW,205,5.0,9.0,78,0.00,,SCT020,0.00,550.00,VWS V14.01,2013-06-02 21:15:00,
2013-06-02 17:20:00,82.1,74.2,29.97,WSW,241,8.0,11.0,77,0.00,,SCT020,0.00,526.00,VWS V14.01,2013-06-02 21:20:00,
2013-06-02 17:25:00,81.8,73.9,29.97,WSW,248,11.0,16.0,77,0.00,,SCT020,0.00,517.00,VWS V14.01,2013-06-02 21:25:00,
2013-06-02 17:30:00,80.8,73.3,29.96,SSW,205,9.0,20.0,78,0.00,,SCT020,0.00,508.00,VWS V14.01,2013-06-02 21:30:00,
2013-06-02 17:35:00,79.9,72.4,29.96,SW,226,4.0,18.0,78,0.00,,SCT020,0.00,366.00,VWS V14.01,2013-06-02 21:35:00,
2013-06-02 17:40:00,79.6,72.9,29.96,West,271,9.0,14.0,80,0.00,,SCT020,0.00,313.00,VWS V14.01,2013-06-02 21:40:00,
2013-06-02 17:45:00,79.7,73.0,29.96,SSW,210,11.0,13.0,80,0.00,,SCT020,0.00,413.00,VWS V14.01,2013-06-02 21:45:00,
2013-06-02 17:50:00,79.9,73.2,29.96,SSW,202,7.0,11.0,80,0.00,,SCT020,0.00,336.00,VWS V14.01,2013-06-02 21:50:00,
2013-06-02 17:55:00,79.9,73.2,29.96,SW,232,8.0,12.0,80,0.00,,SCT020,0.00,267.00,VWS V14.01,2013-06-02 21:55:00,
2013-06-02 18:00:00,79.5,73.2,29.96,SW,217,8.0,12.0,81,0.00,,SCT017,0.00,348.00,VWS V14.01,2013-06-02 22:00:00,
2013-06-02 18:05:00,79.6,73.3,29.96,SW,221,6.0,11.0,81,0.00,,SCT017,0.00,401.00,VWS V14.01,2013-06-02 22:05:00,
2013-06-02 18:10:00,79.7,73.0,29.95,SSW,195,7.0,12.0,80,0.00,,SCT017,0.00,406.00,VWS V14.01,2013-06-02 22:10:00,
2013-06-02 18:15:00,79.9,73.2,29.96,WSW,243,8.0,12.0,80,0.00,,SCT017,0.00,390.00,VWS V14.01,2013-06-02 22:15:00,
2013-06-02 18:20:00,79.7,72.6,29.96,SW,227,9.0,17.0,79,0.00,,SCT017,0.00,360.00,VWS V14.01,2013-06-02 22:20:00,
2013-06-02 18:25:00,79.3,73.0,29.96,SW,232,7.0,16.0,81,0.00,,SCT017,0.00,301.00,VWS V14.01,2013-06-02 22:25:00,
2013-06-02 18:30:00,78.8,72.8,29.96,SW,224,9.0,13.0,82,0.00,,SCT017,0.00,93.00,VWS V14.01,2013-06-02 22:30:00,
2013-06-02 18:35:00,78.5,72.9,29.96,SW,226,9.0,12.0,83,0.00,,SCT017,0.00,84.00,VWS V14.01,2013-06-02 22:35:00,
2013-06-02 18:40:00,78.1,72.5,29.97,SW,217,7.0,14.0,83,0.00,,SCT017,0.00,79.00,VWS V14.01,2013-06-02 22:40:00,
2013-06-02 18:45:00,77.8,72.6,29.97,WSW,254,11.0,13.0,84,0.00,,SCT017,0.00,76.00,VWS V14.01,2013-06-02 22:45:00,
2013-06-02 18:50:00,77.7,72.5,29.97,SW,223,7.0,13.0,84,0.00,,SCT017,0.00,72.00,VWS V14.01,2013-06-02 22:50:00,
2013-06-02 18:55:00,77.6,72.4,29.97,WSW,247,13.0,13.0,84,0.00,,SCT017,0.00,69.00,VWS V14.01,2013-06-02 22:55:00,
2013-06-02 19:00:00,77.5,72.3,29.96,SW,215,9.0,15.0,84,0.00,,SCT043,0.00,67.00,VWS V14.01,2013-06-02 23:00:00,
2013-06-02 19:05:00,77.3,72.1,29.97,SW,236,7.0,15.0,84,0.00,,SCT043,0.00,62.00,VWS V14.01,2013-06-02 23:05:00,
2013-06-02 19:10:00,77.3,72.4,29.97,WSW,242,9.0,14.0,85,0.00,,SCT043,0.00,53.00,VWS V14.01,2013-06-02 23:10:00,
2013-06-02 19:15:00,77.2,72.3,29.97,SW,230,11.0,11.0,85,0.00,,SCT043,0.00,47.00,VWS V14.01,2013-06-02 23:15:00,
2013-06-02 19:20:00,77.0,72.5,29.98,SW,215,11.0,16.0,86,0.00,,SCT043,0.00,39.00,VWS V14.01,2013-06-02 23:20:00,
2013-06-02 19:25:00,76.8,72.3,29.98,WSW,243,11.0,18.0,86,0.00,,SCT043,0.00,46.00,VWS V14.01,2013-06-02 23:25:00,
2013-06-02 19:30:00,76.5,72.7,29.97,SSW,198,5.0,8.0,88,0.00,,SCT043,0.00,28.00,VWS V14.01,2013-06-02 23:30:00,
2013-06-02 19:35:00,76.2,72.1,29.97,SW,223,8.0,12.0,87,0.00,,SCT043,0.00,18.00,VWS V14.01,2013-06-02 23:35:00,
2013-06-02 19:40:00,75.8,71.7,29.97,SSW,196,7.0,11.0,87,0.00,,SCT043,0.00,12.00,VWS V14.01,2013-06-02 23:40:00,
2013-06-02 19:45:00,75.4,71.3,29.98,SSW,193,9.0,17.0,87,0.00,,SCT043,0.00,11.00,VWS V14.01,2013-06-02 23:45:00,
2013-06-02 19:50:00,75.1,71.0,29.97,ESE,103,7.0,12.0,87,0.00,,SCT043,0.00,12.00,VWS V14.01,2013-06-02 23:50:00,
2013-06-02 19:55:00,74.8,71.0,29.97,SW,235,1.0,6.0,88,0.00,,SCT043,0.00,12.00,VWS V14.01,2013-06-02 23:55:00,
2013-06-02 20:00:00,74.5,71.1,29.98,WSW,239,2.0,7.0,89,0.00,,SCT043,0.00,11.00,VWS V14.01,2013-06-03 00:00:00,
2013-06-02 20:05:00,74.4,71.3,29.98,SW,215,8.0,9.0,90,0.00,,SCT043,0.00,9.00,VWS V14.01,2013-06-03 00:05:00,
2013-06-02 20:10:00,74.3,71.2,29.98,West,259,4.0,4.0,90,0.00,,SCT043,0.00,5.00,VWS V14.01,2013-06-03 00:10:00,
2013-06-02 20:15:00,74.3,71.2,29.97,North,360,0.0,9.0,90,0.00,,SCT043,0.00,0.00,VWS V14.01,2013-06-03 00:15:00,
2013-06-02 20:20:00,74.3,71.5,29.97,SW,236,2.0,5.0,91,0.00,,SCT043,0.00,0.00,VWS V14.01,2013-06-03 00:20:00,
2013-06-02 20:25:00,74.4,71.6,29.97,East,92,2.0,6.0,91,0.00,,SCT043,0.00,0.00,VWS V14.01,2013-06-03 00:25:00,
2013-06-02 20:30:00,74.6,71.8,29.97,WSW,246,5.0,8.0,91,0.00,,SCT043,0.00,0.00,VWS V14.01,2013-06-03 00:30:00,
2013-06-02 20:35:00,74.8,72.0,29.97,SSW,195,3.0,10.0,91,0.00,,SCT043,0.00,0.00,VWS V14.01,2013-06-03 00:35:00,
2013-06-02 20:40:00,75.0,72.2,29.97,SW,233,3.0,8.0,91,0.00,,SCT043,0.00,0.00,VWS V14.01,2013-06-03 00:40:00,
2013-06-02 20:45:00,75.0,71.5,29.97,SW,221,7.0,10.0,89,0.00,,SCT043,0.00,0.00,VWS V14.01,2013-06-03 00:45:00,
2013-06-02 20:50:00,75.0,71.2,29.97,SE,142,2.0,8.0,88,0.00,,SCT043,0.00,0.00,VWS V14.01,2013-06-03 00:50:00,
2013-06-02 20:55:00,75.2,71.4,29.97,SW,236,2.0,9.0,88,0.00,,SCT043,0.00,0.00,VWS V14.01,2013-06-03 00:55:00,
2013-06-02 21:00:00,75.4,71.9,29.97,South,190,2.0,8.0,89,0.00,,BKN038,0.00,0.00,VWS V14.01,2013-06-03 01:00:00,
2013-06-02 21:05:00,75.5,72.0,29.97,SW,225,3.0,7.0,89,0.00,,BKN038,0.00,0.00,VWS V14.01,2013-06-03 01:05:00,
2013-06-02 21:10:00,75.6,71.8,29.97,WSW,252,4.0,7.0,88,0.00,,BKN038,0.00,0.00,VWS V14.01,2013-06-03 01:10:00,
2013-06-02 21:15:00,75.7,71.9,29.97,WSW,241,1.0,6.0,88,0.00,,BKN038,0.00,0.00,VWS V14.01,2013-06-03 01:15:00,
2013-06-02 21:20:00,75.9,72.1,29.97,SW,236,5.0,7.0,88,0.00,,BKN038,0.00,0.00,VWS V14.01,2013-06-03 01:20:00,
2013-06-02 21:25:00,76.0,72.2,29.97,SW,223,4.0,6.0,88,0.00,,BKN038,0.00,0.00,VWS V14.01,2013-06-03 01:25:00,
2013-06-02 21:30:00,75.9,72.4,29.97,WSW,237,2.0,7.0,89,0.00,,BKN038,0.00,0.00,VWS V14.01,2013-06-03 01:30:00,
2013-06-02 21:35:00,75.9,72.8,29.97,West,275,2.0,7.0,90,0.00,,BKN038,0.00,0.00,VWS V14.01,2013-06-03 01:35:00,
2013-06-02 21:40:00,76.0,73.2,29.97,SSW,213,3.0,7.0,91,0.00,,BKN038,0.00,0.00,VWS V14.01,2013-06-03 01:40:00,
2013-06-02 21:45:00,76.1,73.3,29.97,SW,221,4.0,6.0,91,0.00,,BKN038,0.00,0.00,VWS V14.01,2013-06-03 01:45:00,
2013-06-02 21:50:00,76.2,73.1,29.97,SSW,195,5.0,6.0,90,0.00,,BKN038,0.00,0.00,VWS V14.01,2013-06-03 01:50:00,
2013-06-02 21:55:00,76.2,73.1,29.96,South,186,4.0,7.0,90,0.00,,BKN038,0.00,0.00,VWS V14.01,2013-06-03 01:55:00,
2013-06-02 22:00:00,76.3,73.5,29.96,SSW,205,3.0,5.0,91,0.00,,BKN038,0.00,0.00,VWS V14.01,2013-06-03 02:00:00,
2013-06-02 22:05:00,76.3,73.5,29.96,SW,235,4.0,6.0,91,0.00,,CLR,0.00,0.00,VWS V14.01,2013-06-03 02:05:00,
2013-06-02 22:10:00,76.3,73.2,29.96,SW,234,4.0,8.0,90,0.00,,CLR,0.00,0.00,VWS V14.01,2013-06-03 02:10:00,
2013-06-02 22:15:00,76.2,73.1,29.96,SW,225,3.0,7.0,90,0.00,,CLR,0.00,0.00,VWS V14.01,2013-06-03 02:15:00,
2013-06-02 22:20:00,76.3,73.2,29.96,WSW,250,2.0,4.0,90,0.00,,CLR,0.00,0.00,VWS V14.01,2013-06-03 02:20:00,
2013-06-02 22:25:00,76.3,73.2,29.96,SW,217,3.0,5.0,90,0.00,,CLR,0.00,0.00,VWS V14.01,2013-06-03 02:25:00,
2013-06-02 22:30:00,76.3,73.2,29.96,West,281,3.0,8.0,90,0.00,,CLR,0.00,0.00,VWS V14.01,2013-06-03 02:30:00,
2013-06-02 22:35:00,76.4,73.2,29.97,WSW,256,4.0,6.0,90,0.00,,CLR,0.00,0.00,VWS V14.01,2013-06-03 02:35:00,
2013-06-02 22:40:00,76.4,73.6,29.97,SW,216,5.0,7.0,91,0.00,,CLR,0.00,0.00,VWS V14.01,2013-06-03 02:40:00,
2013-06-02 22:45:00,76.4,73.6,29.97,WSW,257,5.0,6.0,91,0.00,,CLR,0.00,0.00,VWS V14.01,2013-06-03 02:45:00,
2013-06-02 22:50:00,76.3,73.5,29.97,SSE,152,3.0,7.0,91,0.00,,CLR,0.00,0.00,VWS V14.01,2013-06-03 02:50:00,
2013-06-02 22:55:00,76.4,73.6,29.97,WNW,285,3.0,7.0,91,0.00,,CLR,0.00,0.00,VWS V14.01,2013-06-03 02:55:00,
2013-06-02 23:00:00,76.4,73.6,29.97,WSW,252,3.0,9.0,91,0.00,,CLR,0.00,0.00,VWS V14.01,2013-06-03 03:00:00,
2013-06-02 23:05:00,76.3,73.5,29.97,West,281,6.0,11.0,91,0.00,,FEW019,0.00,0.00,VWS V14.01,2013-06-03 03:05:00,
2013-06-02 23:10:00,76.3,73.5,29.98,SW,217,7.0,10.0,91,0.00,,FEW019,0.00,0.00,VWS V14.01,2013-06-03 03:10:00,
2013-06-02 23:15:00,76.4,73.6,29.97,SSW,205,4.0,9.0,91,0.00,,FEW019,0.00,0.00,VWS V14.01,2013-06-03 03:15:00,
2013-06-02 23:20:00,76.4,73.6,29.97,WSW,238,4.0,9.0,91,0.00,,FEW019,0.00,0.00,VWS V14.01,2013-06-03 03:20:00,
2013-06-02 23:25:00,76.4,73.6,29.97,SSW,207,4.0,6.0,91,0.00,,FEW110,0.00,0.00,VWS V14.01,2013-06-03 03:25:00,
2013-06-02 23:30:00,76.3,73.5,29.97,SSW,200,6.0,10.0,91,0.00,,FEW110,0.00,0.00,VWS V14.01,2013-06-03 03:30:00,
2013-06-02 23:35:00,76.4,73.6,29.96,SSW,193,5.0,8.0,91,0.00,,FEW110,0.00,0.00,VWS V14.01,2013-06-03 03:35:00,
2013-06-02 23:40:00,76.4,73.6,29.97,SSW,196,6.0,12.0,91,0.00,,FEW110,0.00,0.00,VWS V14.01,2013-06-03 03:40:00,
2013-06-02 23:45:00,76.4,73.6,29.96,SW,235,4.0,7.0,91,0.00,,FEW110,0.00,0.00,VWS V14.01,2013-06-03 03:45:00,
2013-06-02 23:50:00,76.4,73.6,29.96,SW,233,6.0,10.0,91,0.00,,FEW110,0.00,0.00,VWS V14.01,2013-06-03 03:50:00,
2013-06-02 23:55:00,76.4,73.2,29.96,SW,225,8.0,9.0,90,0.00,,FEW110,0.00,0.00,VWS V14.01,2013-06-03 03:55:00,